Orbital Elements at Epoch 2455465.5 (2010-Sep-26.0) TDB
Reference: JPL 61 (heliocentric ecliptic J2000)
Element | Value | Uncertainty (1-sigma) | Units |
e | .4221748388175979 | 3.4798e-07 | |
a | 3.488839016727303 | 2.834e-07 | au |
q | 2.015938967179907 | 1.3636e-06 | au |
i | 6.093929308773609 | 1.4618e-05 | deg |
node | 126.4354790622204 | 8.9003e-05 | deg |
peri | 51.13961093403671 | 0.00012112 | deg |
M | 212.8076625625006 | 2.5492e-05 | deg |
tp | 2456438.700949386255 (2013-May-26.20094939) | 0.00020319 | TDB |
period | 2380.234921724902 6.52 | 0.00029002 7.94e-07 | d yr |
n | .1512455752641072 | 1.8429e-08 | deg/d |
Q | 4.961739066274698 | 4.0305e-07 | au |
|
Additional Model Parameters
Parameter | Value | Uncertainty (1-sigma) |
A1 [EST] | 6.789062973555848E-9 | 6.505E-10 |
A2 [EST] | 8.69788577515834E-11 | 1.815E-11 |
|
| | Orbit Determination Parameters
Additional Information
|